Location: Cambroso
(45.2833°N, 12.0850°E)
Time: 10:46:11
(UTC+00:00)

Cosmos 2297 Rocket - Pass Details

Date: 21 January 2021
Orbit: 841 x 842 km, 71.0° (Epoch: 28 February)

Event Time Altitude Azimuth Distance (km) Brightness Sun altitude
Rises 16:27:28 0° 261° (W) 3,393 7.3 -4.6°
Reaches altitude 10° 16:31:02 10° 284° (WNW) 2,462 5.5 -5.2°
Maximum altitude 16:34:15 15° 319° (NW) 2,115 4.5 -5.7°
Drops below altitude 10° 16:37:29 10° 354° (N) 2,468 4.5 -6.3°
Sets 16:41:05 0° 17° (NNE) 3,406 5.0 -6.9°
